Regional Weather Roundup
Issued by NWS Cleveland, OH

Home | Current Version | Previous Version | Graphics & Text | Print | Product List | Glossary On
Versions: 1 2 3 4 5 6 7 8 9 10 11 12 13 14 15 16 17 18 19 20 21 22 23 24 25 26 27 28 29 30 31 32 33 34 35 36 37 38 39 40 41 42 43 44 45 46 47 48 49 50
000
ASUS41 KCLE 240812
RWRCLE
OHIO REGIONAL WEATHER ROUNDUP
NATIONAL WEATHER SERVICE WILMINGTON, OH
400 AM EDT WED AUG 24 2016

NOTE: "FAIR" INDICATES FEW OR NO CLOUDS BELOW 12,000 FEET WITH NO
SIGNIFICANT WEATHER AND/OR OBSTRUCTIONS TO VISIBILITY.

OHZ001>008-015>018-024>027-034-035-043-044-240900-
   NORTHWEST OHIO

CITY           SKY/WX    TMP DP  RH WIND       PRES   REMARKS
DEFIANCE       FAIR      66  58  75 S3        30.16F
FINDLAY        FAIR      64  58  80 S5        30.17F
TOLEDO EXPRESS FAIR      62  61  96 CALM      30.16F
TOLEDO EXEC    FAIR      64  60  87 CALM      30.18F
LIMA           FAIR      63  60  90 S6        30.18F
$$

OHZ009>014-019>023-028>033-038-089-240900-
   NORTHEAST OHIO

CITY           SKY/WX    TMP DP  RH WIND       PRES   REMARKS
CLE-HOPKINS    FAIR      64  56  75 S5        30.23R
CLE-LAKEFRONT  FAIR      67  58  72 SE10      30.19F
CUY CO. ARPT   NOT AVBL
LORAIN-ELYRIA  FAIR      60  56  86 CALM      30.22R
ASHTABULA      FAIR      59  59 100 CALM      30.24R
AKRON-CANTON   FAIR      62  56  80 CALM      30.23F
WOOSTER        FAIR      54  53  97 CALM      30.24R FOG
MANSFIELD      FAIR      61  58  90 S3        30.23R
YOUNGSTOWN     FAIR      57  55  93 SE5       30.24R
$$

OHZ042-051>053-060>062-070>072-077>081-240900-
  SOUTHWEST OHIO

CITY           SKY/WX    TMP DP  RH WIND       PRES   REMARKS
CINC-COVINGTON MOCLDY    68  62  81 S3        30.18F
CINC-LUNKEN    FAIR      64  64 100 CALM      30.18F
HAMILTON       FAIR      66  62  87 CALM      30.19F
DAYTON         MOCLDY    67  59  75 S5        30.20S
WRIGHT-PAT AFB FAIR      67  60  79 SE2       30.18F
DAYTON GENERAL FAIR      67  59  75 S5        30.18F
WILMINGTON     FAIR      63  60  90 S5        30.20F
$$

OHZ036-037-039>041-045>050-054>059-063>069-073>076-082>088-240900-
  CENTRAL AND SOUTHEAST OHIO

CITY           SKY/WX    TMP DP  RH WIND       PRES   REMARKS
COLUMBUS       MOCLDY    64  60  87 CALM      30.21R
OSU AIRPORT    FAIR      64  61  90 CALM      30.21S
BOLTON FIELD   FAIR      61  60  96 CALM      30.21S
RICKENBACK AFB FAIR      61  60  96 CALM      30.21S
NEWARK         FOG       56  55  97 CALM      30.22S VSB 1/4
MARION         FAIR      61  57  87 S6        30.21S
LANCASTER      FAIR      58  57  97 CALM      30.22S
ZANESVILLE     FAIR      59  57  93 CALM      30.23R
NEW PHILLY     FAIR      60  56  86 CALM      30.23F
$$




USA.gov is the U.S. government's official web portal to all federal, state and local government web resources and services.